Location: Antist
(43.1184°N, 0.1270°E)
Time: 09:45:27
(UTC+00:00)

Meteor 1-21 Rocket - Pass Details

Date: 19 January 2020
Orbit: 834 x 907 km, 81.2° (Epoch: 18 February)

Event Time Altitude Azimuth Distance (km) Brightness Sun altitude
Rises 18:12:47 0° 176° (S) 3,374 7.5 -14.2°
Reaches altitude 10° 18:15:12 10° 172° (S) 2,449 6.7 -14.6°
Maximum altitude 18:20:37 58° 95° (E) 990 4.2 -15.6°
Drops below altitude 10° 18:26:10 10° 18° (NNE) 2,506 6.4 -16.6°
Sets 18:28:39 0° 15° (NNE) 3,458 7.1 -17.0°
